When you browse on this site, cookies collect data to enhance your experience and personalize the content and advertising you see.
Visit our Privacy Policy to learn more. By continuing to use the site, you agree to this use of cookies and data.

Hourly Weather Ordino

Today, 19 September, Saturday

Time Temperature Precipitation Wind Pressure Humidity
00:00 +12°C° 0.1 mm 2 mps 633 mmHg 94%
01:00 +12°C° 0 mm 2 mps 632 mmHg 94%
02:00 +12°C° 0 mm 2 mps 632 mmHg 93%
03:00 +10°C° 0 mm 2 mps 632 mmHg 93%
04:00 +10°C° 0.1 mm 2 mps 632 mmHg 93%
05:00 +10°C° 0.1 mm 2 mps 632 mmHg 92%
06:00 +10°C° 0.1 mm 2 mps 632 mmHg 92%
07:00 +13°C° 0 mm 2 mps 633 mmHg 83%
08:00 +14°C° 0 mm 2 mps 633 mmHg 74%
09:00 +16°C° 0 mm 2 mps 634 mmHg 65%
10:00 +17°C° 0 mm 3 mps 634 mmHg 60%
11:00 +18°C° 0 mm 3 mps 634 mmHg 54%
12:00 +18°C° 0 mm 3 mps 634 mmHg 48%
13:00 +18°C° 0 mm 3 mps 634 mmHg 50%
14:00 +18°C° 0 mm 3 mps 633 mmHg 52%
15:00 +17°C° 0 mm 3 mps 633 mmHg 54%
16:00 +16°C° 0.1 mm 2 mps 632 mmHg 63%
17:00 +14°C° 0.1 mm 2 mps 632 mmHg 72%
18:00 +12°C° 0.1 mm 2 mps 631 mmHg 80%
19:00 +11°C° 0 mm 1 mps 631 mmHg 82%
20:00 +10°C° 0 mm 1 mps 631 mmHg 84%
21:00 +10°C° 0 mm 1 mps 632 mmHg 85%
22:00 +10°C° 0 mm 1 mps 632 mmHg 86%
23:00 +9°C° 0 mm 1 mps 632 mmHg 87%

Tomorrow, 20 September, Sunday

Time Temperature Precipitation Wind Pressure Humidity
00:00 +9°C° 0 mm 1 mps 632 mmHg 89%
01:00 +9°C° 0 mm 1 mps 631 mmHg 89%
02:00 +9°C° 0 mm 1 mps 631 mmHg 90%
03:00 +9°C° 0 mm 1 mps 631 mmHg 90%
04:00 +9°C° 0 mm 1 mps 631 mmHg 90%
05:00 +9°C° 0 mm 1 mps 631 mmHg 89%
06:00 +9°C° 0 mm 1 mps 632 mmHg 89%
07:00 +11°C° 0 mm 1 mps 633 mmHg 79%
08:00 +14°C° 0 mm 1 mps 634 mmHg 70%
09:00 +16°C° 0 mm 1 mps 635 mmHg 61%
10:00 +18°C° 0.1 mm 1 mps 635 mmHg 61%
11:00 +18°C° 0.1 mm 1 mps 635 mmHg 60%
12:00 +18°C° 0.1 mm 1 mps 635 mmHg 60%
13:00 +18°C° 0.4 mm 1 mps 634 mmHg 64%
14:00 +16°C° 0.4 mm 1 mps 634 mmHg 67%
15:00 +16°C° 0.4 mm 1 mps 634 mmHg 71%
16:00 +15°C° 0.4 mm 1 mps 633 mmHg 77%
17:00 +12°C° 0.4 mm 0 mps 633 mmHg 82%
18:00 +11°C° 0.4 mm 0 mps 632 mmHg 88%
19:00 +11°C° 0.3 mm 0 mps 633 mmHg 90%
20:00 +10°C° 0.3 mm 0 mps 633 mmHg 91%
21:00 +11°C° 0.3 mm 1 mps 633 mmHg 93%
22:00 +11°C° 0.1 mm 1 mps 633 mmHg 93%
23:00 +10°C° 0.1 mm 0 mps 633 mmHg 93%

Day after tomorrow, 21 September, Monday

Time Temperature Precipitation Wind Pressure Humidity
00:00 +9°C° 0.1 mm 0 mps 633 mmHg 93%
01:00 +10°C° 0 mm 1 mps 633 mmHg 93%
02:00 +10°C° 0 mm 1 mps 633 mmHg 93%
03:00 +10°C° 0 mm 1 mps 633 mmHg 92%
04:00 +9°C° 0 mm 1 mps 632 mmHg 92%
05:00 +9°C° 0 mm 1 mps 632 mmHg 92%
06:00 +9°C° 0 mm 1 mps 632 mmHg 92%
07:00 +11°C° 0 mm 1 mps 633 mmHg 86%
08:00 +13°C° 0 mm 1 mps 634 mmHg 79%
09:00 +15°C° 0 mm 1 mps 635 mmHg 73%
10:00 +16°C° 0.7 mm 1 mps 635 mmHg 74%
11:00 +16°C° 0.7 mm 1 mps 635 mmHg 74%
12:00 +16°C° 0.7 mm 1 mps 635 mmHg 74%
13:00 +16°C° 1.2 mm 1 mps 635 mmHg 76%
14:00 +15°C° 1.2 mm 1 mps 634 mmHg 79%
15:00 +15°C° 1.2 mm 1 mps 634 mmHg 81%
16:00 +14°C° 0.6 mm 1 mps 633 mmHg 85%
17:00 +12°C° 0.6 mm 0 mps 633 mmHg 89%
18:00 +10°C° 0.6 mm 0 mps 633 mmHg 93%
19:00 +10°C° 0 mm 0 mps 633 mmHg 93%
20:00 +10°C° 0 mm 0 mps 633 mmHg 93%
21:00 +9°C° 0 mm 0 mps 633 mmHg 93%
22:00 +10°C° 0 mm 1 mps 632 mmHg 93%
23:00 +10°C° 0 mm 1 mps 632 mmHg 93%

22 September, Tuesday

Time Temperature Precipitation Wind Pressure Humidity
00:00 +10°C° 0 mm 1 mps 632 mmHg 93%
01:00 +9°C° 0 mm 1 mps 632 mmHg 93%
02:00 +9°C° 0 mm 1 mps 631 mmHg 93%
03:00 +9°C° 0 mm 1 mps 631 mmHg 93%
04:00 +9°C° 0 mm 1 mps 631 mmHg 92%
05:00 +9°C° 0 mm 1 mps 631 mmHg 92%
06:00 +9°C° 0 mm 1 mps 631 mmHg 92%
07:00 +11°C° 0 mm 1 mps 632 mmHg 86%
08:00 +13°C° 0 mm 1 mps 633 mmHg 80%
09:00 +14°C° 0 mm 1 mps 633 mmHg 75%
10:00 +15°C° 0.4 mm 1 mps 633 mmHg 73%
11:00 +15°C° 0.4 mm 2 mps 633 mmHg 71%
12:00 +16°C° 0.4 mm 2 mps 633 mmHg 69%
13:00 +15°C° 0.9 mm 1 mps 633 mmHg 73%
14:00 +15°C° 0.9 mm 1 mps 632 mmHg 77%
15:00 +14°C° 0.9 mm 1 mps 631 mmHg 82%
16:00 +13°C° 0.7 mm 1 mps 631 mmHg 85%
17:00 +12°C° 0.7 mm 1 mps 630 mmHg 88%
18:00 +11°C° 0.7 mm 1 mps 630 mmHg 91%
19:00 +11°C° 0.2 mm 1 mps 630 mmHg 92%
20:00 +10°C° 0.2 mm 1 mps 630 mmHg 93%
21:00 +10°C° 0.2 mm 1 mps 630 mmHg 93%
22:00 +10°C° 0 mm 1 mps 630 mmHg 93%
23:00 +10°C° 0 mm 1 mps 630 mmHg 93%

23 September, Wednesday

Time Temperature Precipitation Wind Pressure Humidity
00:00 +9°C° 0 mm 1 mps 630 mmHg 93%
01:00 +9°C° 0 mm 1 mps 629 mmHg 92%
02:00 +9°C° 0 mm 1 mps 629 mmHg 92%
03:00 +9°C° 0 mm 1 mps 629 mmHg 92%
04:00 +9°C° 0 mm 1 mps 629 mmHg 92%
05:00 +9°C° 0 mm 1 mps 629 mmHg 91%
06:00 +9°C° 0 mm 1 mps 629 mmHg 90%
07:00 +11°C° 0 mm 1 mps 630 mmHg 85%
08:00 +13°C° 0 mm 1 mps 631 mmHg 79%
09:00 +15°C° 0 mm 1 mps 631 mmHg 74%
10:00 +16°C° 0.2 mm 1 mps 631 mmHg 70%
11:00 +16°C° 0.2 mm 1 mps 631 mmHg 67%
12:00 +17°C° 0.2 mm 2 mps 632 mmHg 63%
13:00 +17°C° 0.8 mm 2 mps 631 mmHg 67%
14:00 +16°C° 0.8 mm 1 mps 631 mmHg 71%
15:00 +16°C° 0.8 mm 1 mps 630 mmHg 74%
16:00 +14°C° 0.5 mm 1 mps 629 mmHg 80%
17:00 +13°C° 0.5 mm 1 mps 629 mmHg 85%
18:00 +11°C° 0.5 mm 1 mps 628 mmHg 91%
19:00 +11°C° 0 mm 1 mps 628 mmHg 91%
20:00 +11°C° 0 mm 1 mps 628 mmHg 92%
21:00 +10°C° 0 mm 1 mps 628 mmHg 92%
22:00 +9°C° 0.1 mm 2 mps 627 mmHg 92%
23:00 +9°C° 0.1 mm 2 mps 627 mmHg 91%

24 September, Thursday

Time Temperature Precipitation Wind Pressure Humidity
00:00 +10°C° 0.1 mm 2 mps 627 mmHg 91%
01:00 +9°C° 0.2 mm 2 mps 626 mmHg 92%
02:00 +9°C° 0.2 mm 2 mps 625 mmHg 92%
03:00 +9°C° 0.2 mm 2 mps 625 mmHg 93%
04:00 +9°C° 0.1 mm 2 mps 625 mmHg 93%
05:00 +9°C° 0.1 mm 2 mps 624 mmHg 92%
06:00 +9°C° 0.1 mm 3 mps 624 mmHg 92%
07:00 +10°C° 0.1 mm 3 mps 625 mmHg 86%
08:00 +12°C° 0.1 mm 3 mps 625 mmHg 81%
09:00 +13°C° 0.1 mm 3 mps 625 mmHg 75%
10:00 +14°C° 0.1 mm 3 mps 625 mmHg 70%
11:00 +14°C° 0.1 mm 3 mps 625 mmHg 66%
12:00 +16°C° 0.1 mm 3 mps 625 mmHg 62%
13:00 +14°C° 0.2 mm 3 mps 624 mmHg 64%
14:00 +13°C° 0.2 mm 3 mps 624 mmHg 67%
15:00 +12°C° 0.2 mm 3 mps 623 mmHg 69%
16:00 +10°C° 0.3 mm 2 mps 623 mmHg 74%
17:00 +9°C° 0.3 mm 2 mps 623 mmHg 79%
18:00 +8°C° 0.3 mm 1 mps 623 mmHg 83%
19:00 +7°C° 0.2 mm 1 mps 623 mmHg 86%
20:00 +6°C° 0.2 mm 1 mps 623 mmHg 89%
21:00 +5°C° 0.2 mm 1 mps 623 mmHg 92%
22:00 +5°C° 0.8 mm 1 mps 623 mmHg 93%
23:00 +4°C° 0.8 mm 1 mps 623 mmHg 95%
Show more